Weather History for KFSE - February, 2013

Change the Weather History Date:

Sunday, February 17, 2013

  Actual Average Record
Temperature  
Mean Temperature 24 °F -  
Max Temperature 33 °F 23 °F 48 °F (1981)
Min Temperature 15 °F 2 °F -36 °F (1989)
Degree Days  
Heating Degree Days 41    
Moisture  
Dew Point 20 °F    
Average Humidity 81    
Maximum Humidity 93    
Minimum Humidity 69    
Precipitation  
Precipitation 0.00 in - - ()
Sea Level Pressure  
Sea Level Pressure 29.65 in    
Wind  
Wind Speed 17 mph (SSE)    
Max Wind Speed 25 mph    
Max Gust Speed 34 mph    
Visibility 10 miles    
Events Snow    
Averages and records for this station are not official NWS values.
T = Trace of Precipitation, MM = Missing Value Source: NWS Daily Summary

Daily Weather History Graph

Daily Weather History Graph

Search for Another Location

Airport or City:

Trip Planner

Search our weather history database for the weather conditions in past years. The results will help you decide how hot, cold, wet, or windy it might be!

Date:

Astronomy

Feb. 17, 2013 Rise Set
Actual Time 7:24 AM CST 5:50 PM CST
Civil Twilight 6:53 AM CST 6:21 PM CST
Nautical Twilight 6:17 AM CST 6:57 PM CST
Astronomical Twilight 5:41 AM CST 7:33 PM CST
Moon 10:44 AM CST (2/17) 1:19 AM CST (2/17)
Length of Visible Light 11h 28m
Length of Day
10h 25m
Waxing Crescent, 49% of the Moon is Illuminated
Feb 17
Waxing Crescent
Feb 17
First Quarter
Feb 25
Full
Mar 4
Last Quarter
Mar 11
New

Hourly Weather History & Observations

Time (CST) Temp. Windchill Dew Point Humidity Pressure Visibility Wind Dir Wind Speed Gust Speed Precip Events Conditions
12:15 AM 17.6 °F 3.2 °F 10.4 °F 73% 29.93 in 10.0 mi South 15.0 mph - N/A   Overcast
12:34 AM 15.8 °F -0.2 °F 10.4 °F 79% 29.93 in 10.0 mi South 17.3 mph - N/A   Overcast
12:55 AM 15.8 °F 0.3 °F 10.4 °F 79% 29.93 in 10.0 mi South 16.1 mph 20.7 mph N/A   Overcast
1:15 AM 15.8 °F -0.2 °F 10.4 °F 79% 29.91 in 10.0 mi South 17.3 mph - N/A   Overcast
1:35 AM 15.8 °F -0.2 °F 10.4 °F 79% 29.90 in 10.0 mi South 17.3 mph - N/A   Overcast
1:55 AM 15.8 °F -0.2 °F 12.2 °F 86% 29.89 in 10.0 mi South 17.3 mph - N/A   Overcast
2:15 AM 17.6 °F 2.7 °F 12.2 °F 79% 29.88 in 7.0 mi South 16.1 mph - N/A Snow Light Snow
2:35 AM 17.6 °F 2.2 °F 12.2 °F 79% 29.87 in 10.0 mi South 17.3 mph - N/A   Overcast
2:55 AM 17.6 °F 2.7 °F 12.2 °F 79% 29.86 in 10.0 mi SSE 16.1 mph - N/A   Overcast
3:15 AM 17.6 °F 3.2 °F 12.2 °F 79% 29.85 in 10.0 mi SSE 15.0 mph - N/A   Overcast
3:35 AM 17.6 °F 2.7 °F 12.2 °F 79% 29.84 in 10.0 mi South 16.1 mph - N/A   Overcast
3:55 AM 17.6 °F 2.7 °F 14.0 °F 86% 29.83 in 10.0 mi South 16.1 mph - N/A   Overcast
4:15 AM 17.6 °F 2.2 °F 14.0 °F 86% 29.83 in 10.0 mi South 17.3 mph - N/A   Overcast
4:35 AM 17.6 °F 1.7 °F 14.0 °F 86% 29.82 in 10.0 mi South 18.4 mph - N/A   Overcast
4:55 AM 17.6 °F 1.7 °F 14.0 °F 86% 29.80 in 10.0 mi South 18.4 mph - N/A   Overcast
5:15 AM 17.6 °F 1.7 °F 15.8 °F 93% 29.79 in 10.0 mi South 18.4 mph 23.0 mph N/A   Overcast
5:35 AM 19.4 °F 4.1 °F 15.8 °F 86% 29.78 in 10.0 mi South 18.4 mph - N/A   Overcast
5:55 AM 19.4 °F 3.6 °F 15.8 °F 86% 29.78 in 10.0 mi South 19.6 mph - N/A   Overcast
6:15 AM 19.4 °F 4.5 °F 15.8 °F 86% 29.78 in 10.0 mi South 17.3 mph - N/A   Overcast
6:35 AM 19.4 °F 4.5 °F 15.8 °F 86% 29.77 in 10.0 mi South 17.3 mph - N/A   Overcast
6:55 AM 19.4 °F 5.0 °F 15.8 °F 86% 29.76 in 10.0 mi South 16.1 mph - N/A   Overcast
7:15 AM 19.4 °F 4.1 °F 15.8 °F 86% 29.75 in 10.0 mi South 18.4 mph - N/A   Overcast
7:35 AM 19.4 °F 4.1 °F 15.8 °F 86% 29.75 in 10.0 mi South 18.4 mph - N/A   Overcast
7:54 AM 19.4 °F 5.0 °F 15.8 °F 86% 29.74 in 10.0 mi SSE 16.1 mph - N/A   Overcast
8:15 AM 19.4 °F 6.0 °F 17.6 °F 93% 29.72 in 10.0 mi SSE 13.8 mph - N/A   Scattered Clouds
8:35 AM 21.2 °F 7.8 °F 17.6 °F 86% 29.71 in 7.0 mi SSE 15.0 mph 19.6 mph N/A   Scattered Clouds
8:55 AM 21.2 °F 6.4 °F 19.4 °F 93% 29.70 in 10.0 mi SSE 18.4 mph 23.0 mph N/A   Clear
9:15 AM 23.0 °F 9.2 °F 19.4 °F 86% 29.69 in 10.0 mi SSE 17.3 mph 23.0 mph N/A   Scattered Clouds
9:35 AM 23.0 °F 9.2 °F 19.4 °F 86% 29.69 in 7.0 mi SSE 17.3 mph 24.2 mph N/A   Clear
9:55 AM 24.8 °F 12.4 °F 19.4 °F 80% 29.68 in 10.0 mi SSE 15.0 mph 21.9 mph N/A   Scattered Clouds
10:15 AM 26.6 °F 15.2 °F 21.2 °F 80% 29.67 in 10.0 mi SSE 13.8 mph - N/A   Scattered Clouds
10:35 AM 26.6 °F 15.2 °F 21.2 °F 80% 29.66 in 10.0 mi SSE 13.8 mph - N/A   Scattered Clouds
11:15 AM 30.2 °F 18.9 °F 23.0 °F 75% 29.64 in 10.0 mi SSE 16.1 mph - N/A   Clear
11:35 AM 30.2 °F 18.9 °F 23.0 °F 75% 29.63 in 10.0 mi SSE 16.1 mph - N/A   Scattered Clouds
11:55 AM 32.0 °F 21.2 °F 23.0 °F 69% 29.62 in 10.0 mi SSE 16.1 mph - N/A   Scattered Clouds
12:15 PM 33.8 °F 23.5 °F 24.8 °F 70% 29.59 in 10.0 mi SSE 16.1 mph 21.9 mph N/A   Scattered Clouds
12:35 PM 33.8 °F 22.5 °F 24.8 °F 70% 29.58 in 10.0 mi South 19.6 mph - N/A   Clear
12:55 PM 33.8 °F 23.5 °F 24.8 °F 70% 29.57 in 10.0 mi South 16.1 mph - N/A   Scattered Clouds
1:15 PM 33.8 °F 22.5 °F 26.6 °F 75% 29.56 in 10.0 mi South 19.6 mph 26.5 mph N/A   Scattered Clouds
1:35 PM 33.8 °F 21.6 °F 26.6 °F 75% 29.55 in 10.0 mi South 23.0 mph 32.2 mph N/A   Scattered Clouds
1:55 PM 33.8 °F 21.9 °F 26.6 °F 75% 29.54 in 10.0 mi South 21.9 mph 29.9 mph N/A   Scattered Clouds
2:15 PM 33.8 °F 21.9 °F 26.6 °F 75% 29.53 in 7.0 mi South 21.9 mph 29.9 mph N/A   Scattered Clouds
2:35 PM 33.8 °F 21.3 °F 26.6 °F 75% 29.52 in 10.0 mi South 24.2 mph 32.2 mph N/A   Scattered Clouds
2:55 PM 33.8 °F 22.2 °F 26.6 °F 75% 29.51 in 10.0 mi South 20.7 mph - N/A   Scattered Clouds
3:15 PM 33.8 °F 21.0 °F 26.6 °F 75% 29.51 in 10.0 mi South 25.3 mph 31.1 mph N/A   Scattered Clouds
3:35 PM 32.0 °F 18.6 °F 26.6 °F 80% 29.49 in 7.0 mi SSE 25.3 mph 34.5 mph N/A   Mostly Cloudy
3:55 PM 32.0 °F 19.5 °F 26.6 °F 80% 29.49 in 7.0 mi SSE 21.9 mph 34.5 mph N/A   Scattered Clouds
4:15 PM 32.0 °F 19.5 °F 24.8 °F 75% 29.49 in 10.0 mi South 21.9 mph 31.1 mph N/A   Scattered Clouds
4:35 PM 32.0 °F 19.8 °F 24.8 °F 75% 29.49 in 10.0 mi South 20.7 mph 29.9 mph N/A   Scattered Clouds
4:55 PM 32.0 °F 21.2 °F 24.8 °F 75% 29.50 in 10.0 mi South 16.1 mph 19.6 mph N/A   Mostly Cloudy
5:15 PM 30.2 °F 19.3 °F 24.8 °F 80% 29.51 in 10.0 mi South 15.0 mph - N/A   Overcast
5:35 PM 30.2 °F 18.9 °F 24.8 °F 80% 29.52 in 10.0 mi South 16.1 mph - N/A   Overcast
5:55 PM 30.2 °F 17.8 °F 24.8 °F 80% 29.52 in 10.0 mi South 19.6 mph - N/A   Overcast
6:15 PM 28.4 °F 15.4 °F 24.8 °F 86% 29.51 in 10.0 mi South 19.6 mph - N/A   Overcast
6:35 PM 28.4 °F 14.7 °F 24.8 °F 86% 29.51 in 10.0 mi SSE 21.9 mph 26.5 mph N/A   Overcast
6:55 PM 28.4 °F 16.2 °F 23.0 °F 80% 29.53 in 10.0 mi South 17.3 mph - N/A   Overcast
7:15 PM 28.4 °F 16.2 °F 23.0 °F 80% 29.54 in 10.0 mi South 17.3 mph - N/A   Overcast
7:35 PM 28.4 °F 16.6 °F 23.0 °F 80% 29.54 in 10.0 mi South 16.1 mph - N/A   Overcast
7:55 PM 28.4 °F 16.6 °F 24.8 °F 86% 29.54 in 10.0 mi South 16.1 mph - N/A   Overcast
8:15 PM 28.4 °F 15.8 °F 23.0 °F 80% 29.53 in 10.0 mi South 18.4 mph - N/A   Mostly Cloudy
8:35 PM 28.4 °F 16.2 °F 23.0 °F 80% 29.52 in 10.0 mi South 17.3 mph - N/A   Mostly Cloudy
8:55 PM 26.6 °F 13.4 °F 23.0 °F 86% 29.52 in 10.0 mi South 18.4 mph - N/A   Scattered Clouds
9:15 PM 26.6 °F 13.8 °F 23.0 °F 86% 29.51 in 10.0 mi South 17.3 mph - N/A   Scattered Clouds
9:35 PM 26.6 °F 13.8 °F 23.0 °F 86% 29.51 in 10.0 mi South 17.3 mph - N/A   Mostly Cloudy
9:55 PM 28.4 °F 18.0 °F 24.8 °F 86% 29.51 in 10.0 mi SSE 12.7 mph 20.7 mph N/A   Overcast
10:15 PM 28.4 °F 16.2 °F 24.8 °F 86% 29.50 in 10.0 mi SSE 17.3 mph - N/A   Mostly Cloudy
10:35 PM 28.4 °F 17.0 °F 24.8 °F 86% 29.50 in 10.0 mi SSE 15.0 mph 19.6 mph N/A   Overcast
10:55 PM 28.4 °F 17.0 °F 24.8 °F 86% 29.50 in 10.0 mi SSE 15.0 mph - N/A   Overcast
11:15 PM 28.4 °F 17.0 °F 24.8 °F 86% 29.50 in 10.0 mi South 15.0 mph - N/A   Overcast
11:35 PM 28.4 °F 17.5 °F 24.8 °F 86% 29.50 in 10.0 mi South 13.8 mph - N/A   Overcast
11:55 PM 28.4 °F 17.5 °F 24.8 °F 86% 29.49 in 10.0 mi South 13.8 mph - N/A   Overcast